Regional Weather Roundup
Issued by NWS Kansas City/Pleasant Hill, MO

Home | Current Version | Previous Version | Text Only | Print | Product List | Glossary On
Versions: 1 2 3 4 5 6 7 8 9 10 11 12 13 14 15 16 17 18 19 20 21 22 23 24 25 26 27
000
ASUS43 KEAX 200310
RWREAX

WEATHER ROUNDUP FOR EASTERN KANSAS AND NORTHWEST MISSOURI
NATIONAL WEATHER SERVICE KANSAS CITY/PLEASANT HILL MO
1000 PM CDT THU OCT 19 2017

KSZ040-057-103>105-MOZ028-029-037-043-200400-
...KANSAS CITY METROPOLITAN AREA...

CITY           SKY/WX    TMP DP  RH WIND       PRES   REMARKS
K.C. INTL      PTCLDY    62  53  72 S12       30.07R
K.C. DOWNTOWN  CLEAR     64  54  69 S8        30.07R
LEES SUMMIT    CLEAR     64  54  69 S13       30.09R
OLATHE - IXD   CLEAR     59  52  77 S7        30.09R
OLATHE - OJC   CLEAR     59  52  77 S8        30.08S
LAWRENCE       CLEAR     56  51  84 SE7       30.07R

$$

MOZ001>008-011>017-020>025-030>033-038>040-044>046-053-054-200400-
...NORTHERN AND CENTRAL MISSOURI...

CITY           SKY/WX    TMP DP  RH WIND       PRES   REMARKS
ST. JOSEPH     CLOUDY    63  54  72 S8        30.05R
MOSBY          CLOUDY    61  52  72 SE3       30.08R
WARRENSBURG    CLEAR     55  52  88 CALM      30.10R
WHITEMAN AFB   CLEAR     61  52  73 S5        30.06S
CLINTON        CLEAR     59  54  82 MISG      30.11R
SEDALIA        PTCLDY    59  54  83 S8        30.12R
WARSAW         NOT AVBL
CHILLICOTHE      N/A     63  53  70 S3        30.09S
KIRKSVILLE     CLEAR     59  53  80 S8        30.11R

$$

MOZ041-047>049-056>058-063>065-088>090-097-200400-
...EASTERN AND SOUTHERN MISSOURI...

CITY           SKY/WX    TMP DP  RH WIND       PRES   REMARKS
ST. LOUIS INTL PTCLDY    68  51  54 S7        30.15S
SPIRIT OF STL  CLEAR     54  53  97 CALM      30.14R
COLUMBIA       CLOUDY    65  52  62 S6        30.13R
JEFFERSON CITY CLOUDY    57  53  86 E5        30.12R
ROLLA          CLOUDY    64  47  53 S10       30.16R
OSAGE BEACH    CLEAR     62  52  69 S6        30.14S
SPRINGFIELD    CLOUDY    65  48  54 S12       30.14R
BRANSON        CLOUDY    63  50  63 CALM      30.18R
JOPLIN         CLEAR     59  52  77 S6        30.13R
WEST PLAINS    CLOUDY    63  48  58 S6        30.20R

$$

IAZ060-094-KSZ022-034>040-054-083-096-NEZ052-066-093-200400-
...KANSAS...SOUTHEAST NEBRASKA AND IOWA...

CITY           SKY/WX    TMP DP  RH WIND       PRES   REMARKS
TOPEKA         CLEAR     64  54  69 S8        30.05R
MANHATTAN      CLEAR     61  48  62 SW7       30.02R
EMPORIA        PTCLDY    61  52  72 S13       30.06S
CHANUTE        CLEAR     61  52  72 S10       30.10R
WICHITA        PTCLDY    64  52  64 S15       30.05R
OMAHA          PTCLDY    66  51  58 S12       29.97S
LINCOLN        CLEAR     57  49  74 S10       29.97S
FALLS CITY     CLOUDY    65  51  60 S8        30.02R
LAMONI         CLEAR     63  52  67 S10       30.05S
DES MOINES     CLEAR     63  52  67 S8        30.03R

$$





USA.gov is the U.S. government's official web portal to all federal, state and local government web resources and services.